Location: McFarlands Corners
(41.4117°N, 81.3382°W)
Time: 18:15:54
(UTC+00:00)

Vanguard 1 Rocket - Pass Details

Date: 19 February 2026
Orbit: 653 x 4214 km, 34.3° (Epoch: 8 March)

Event Time Altitude Azimuth Distance (km) Brightness Sun altitude
Rises 22:23:52 0° 275° (W) 5,456 12.7 6.4°
Reaches altitude 10° 22:26:50 10° 271° (W) 4,820 12.7 5.9°
Maximum altitude 22:41:38 59° 197° (SSW) 3,715 10.8 3.2°
Drops below altitude 10° 23:05:53 10° 126° (SE) 7,407 11.7 -1.1°
Sets 23:11:56 0° 123° (ESE) 8,421 11.9 -2.2°
